User: anonymous   Login
Location: Unspecified
(0.0000°N, 0.0000°E)
Time: 15:23:15
(UTC+00:00)
Language:

S-NET A - Orbit

View from above orbital plane
View from above orbital plane
View from above satellite
View from above satellite

Ground track
Ground track

The orbit data is extracted from the following two-line orbital elements,

1 43188U 18014J   21334.17542185  .00000313  00000-0  32033-4 0  9996
2 43188  97.6685 238.6927 0009254 244.1904 115.8364 14.97250712209094
Epoch (UTC): 30 November 2021 04:12:36
Eccentricity: 0.0009254
inclination: 97.6685°
perigee height: 569 km
apogee height: 582 km
right ascension of ascending node: 238.6927°
argument of perigee: 244.1904°
revolutions per day: 14.97250712
mean anomaly at epoch: 115.8364°
orbit number at epoch: 20909

The dashed part of the orbit path shows where the satellite is in the earth's shadow,  

DLR